Volver al catálogo

METEOR 2-5 DEB

ActivoPO
NORAD 38280·DEBRIS·🇷🇺 Russia

Lanzado Oct 31, 1979 desde Plesetsk Cosmodrome

Loading…

Próximos Pases (próximas 24 horas)

TLE

ActualizadoSource: Space-Track

Época: Sep 12, 2026, 01:07 UTC

1 38280U 79095CA  26255.04654141  .00001257  00000-0  33500-3 0  9995
2 38280  81.1884   8.8529 0008735 124.6949 235.5067 14.47977709820073

Sigue METEOR 2-5 DEB en tiempo real con AllMySat

Download on the App Store